Wind_Speed
1 2 1 5 8 9 7 9 9 9 10 14 11 9 9 8 6 8 10 9 9 10 6 10 11 8 5 3 5 4 7 8 9 9 10 11 11 12 12 12 11 12 15 17
1 1 3 4 6 10 5 5 4 6 6 7 7 5 5 6 7 8 9 9 9 9 6 9 8 3 1 4 4 6 8 10 12 12 12 10 9 9 9 10 11 12 13 16
7 3 3 4 14 11 5 5 8 8 8 8 5 6 7 6 6 7 7 7 6 5 5 8 8 4 2 4 5 7 10 13 14 13 10 8 8 10 8 8 8 10 12 14
3 3 8 3 4 10 13 8 8 5 6 5 6 6 4 5 5 5 3 1 3 4 5 5 5 5 5 6 7 6 7 9 9 9 9 10 10 9 6 6 7 10 11 12
5 7 3 3 5 9 9 10 10 9 7 6 6 5 3 7 6 4 3 1 1 1 2 3 5 5 5 5 6 6 5 4 6 7 8 7 8 6 6 6 8 8 9 12
3 5 8 6 4 6 5 6 9 10 9 8 8 4 4 5 5 6 6 5 4 3 2 1 3 3 3 3 4 5 4 5 4 4 4 5 6 5 5 7 8 8 9 9
3 3 5 4 5 6 6 7 9 11 9 9 6 5 5 6 4 5 7 7 6 5 6 4 1 1 3 3 2 2 1 2 1 2 3 5 5 6 6 7 8 8 9 10
3 3 7 7 3 8 5 3 6 6 8 8 6 7 6 7 4 6 8 8 8 9 10 7 5 4 1 1 1 2 3 4 4 4 4 5 6 6 7 8 10 11 11 11
8 6 2 4 3 5 5 6 6 7 7 8 8 7 5 4 3 4 7 9 10 13 14 11 8 6 3 2 2 3 4 4 6 6 7 6 7 9 10 10 11 13 13 14
3 2 3 3 1 1 3 0 2 3 6 8 7 6 5 4 5 6 10 12 14 15 16 13 10 7 5 4 4 5 6 6 6 8 8 7 8 9 9 11 12 13 15 15
2 1 2 3 3 3 3 3 4 4 5 6 5 4 6 5 6 10 12 12 11 15 15 13 10 7 6 5 6 7 8 8 8 10 11 11 9 8 7 9 10 14 15 17
4 5 3 2 3 5 6 5 6 1 4 5 6 8 6 7 13 12 12 11 10 12 14 13 10 8 7 6 8 8 9 10 12 12 12 11 10 8 4 3 6 6 7 11
3 6 7 5 7 3 4 6 7 7 9 10 8 10 11 6 17 19 14 13 13 14 13 12 9 8 6 7 9 10 11 11 12 13 14 13 12 12 12 7 5 4 6 7
4 2 4 6 6 10 9 9 15 12 11 10 14 14 14 13 14 11 14 17 12 15 14 11 8 6 7 8 10 10 10 10 13 13 14 13 13 13 13 15 13 10 8 8
8 8 10 7 4 7 8 4 6 6 6 7 13 14 14 9 9 16 12 9 16 16 13 11 10 7 7 9 10 10 10 11 12 13 13 13 12 12 13 12 12 12 11 8
6 6 6 7 8 7 6 7 7 9 7 7 6 11 18 14 8 7 13 20 20 13 13 11 8 9 9 9 10 10 11 12 12 14 13 13 12 12 11 10 11 12 16 14
4 6 3 4 7 7 8 6 6 5 6 7 10 14 11 10 12 14 16 16 15 16 13 10 9 10 10 11 11 12 12 12 12 13 12 12 12 11 10 9 9 12 16 16
8 11 9 6 5 6 6 8 7 11 10 13 11 10 10 11 11 17 19 18 16 14 10 8 9 11 12 12 10 10 12 13 12 12 12 12 12 11 10 9 9 10 13 16
9 9 2 4 5 5 6 7 5 7 10 9 13 7 7 10 15 19 21 17 14 13 10 9 11 12 12 11 10 11 12 12 12 11 11 12 11 10 10 9 9 10 12 13
8 9 9 6 6 5 5 5 3 4 3 14 15 13 12 14 18 18 16 11 11 8 12 11 11 12 12 11 10 10 12 13 12 11 12 13 11 11 10 10 10 11 12 12
7 7 5 4 4 5 4 3 6 8 8 12 13 13 14 15 16 15 13 8 8 11 10 11 12 13 13 10 10 12 12 13 13 12 13 14 12 11 10 9 9 9 10 10
4 5 5 7 6 8 9 10 12 12 11 14 15 17 17 13 12 10 7 9 12 12 11 12 11 11 10 10 10 10 10 11 10 11 12 12 12 11 11 10 9 9 9 8
6 6 5 5 5 6 9 10 11 13 13 13 12 12 11 11 11 9 4 8 12 11 11 10 10 11 10 9 10 10 10 9 10 11 11 11 11 11 11 10 9 8 8 9
5 6 5 5 6 7 5 6 9 10 11 10 9 7 9 12 8 5 5 9 9 11 10 12 12 11 9 9 9 9 9 9 10 10 10 11 10 10 10 10 10 9 8 9
2 3 4 5 5 4 6 6 8 8 9 9 7 6 5 7 4 8 6 6 11 13 12 11 11 9 9 10 9 9 9 9 9 10 11 11 11 11 10 10 9 9 9 9
0 1 1 3 2 3 4 4 5 6 7 7 6 6 6 5 5 5 8 10 12 12 11 12 12 11 11 9 10 10 9 8 10 11 10 10 10 10 9 9 9 9 9 8
3 3 3 2 3 4 4 4 7 8 8 9 8 9 8 7 7 10 8 10 11 10 9 10 12 12 12 10 9 9 9 8 9 9 9 9 9 8 8 8 8 8 8 9
Wind_Direction
167 262 160 179 173 166 173 195 183 207 205 186 208 210 198 219 240 253 256 262 269 276 265 246 224 219 219 255 277 324 325 322 321 322 315 310 307 304 302 297 287 276 255 247
179 295 222 193 159 174 182 140 97 157 241 193 213 220 279 263 272 279 271 279 284 277 224 187 186 181 301 285 322 339 328 324 322 319 316 317 323 321 309 302 288 266 248 233
219 158 134 297 205 181 168 174 147 184 209 161 185 216 235 240 238 262 293 306 328 9 41 70 67 42 22 1 360 353 338 325 320 316 311 317 327 322 309 282 246 228 220 213
178 134 216 236 199 182 189 195 191 166 179 172 169 179 190 215 218 240 252 354 17 34 59 62 47 25 1 344 338 328 320 318 318 316 315 321 313 306 276 239 223 209 204 207
178 221 336 217 189 160 166 235 199 195 154 166 136 118 239 203 202 202 198 205 238 356 31 28 33 19 2 1 357 352 343 349 331 327 307 302 293 267 248 235 215 202 195 187
168 179 209 235 186 144 111 255 187 172 178 156 142 160 226 198 196 209 217 222 232 228 229 301 22 358 34 67 30 25 1 350 324 314 295 273 257 244 242 222 199 189 179 187
149 203 277 255 176 127 143 239 184 174 163 162 187 187 180 155 183 219 238 246 246 239 244 265 218 282 50 76 62 335 293 254 239 266 272 241 224 219 200 185 176 170 170 177
134 148 248 168 47 172 210 358 147 162 181 181 180 181 184 191 211 212 218 239 256 265 254 238 235 248 206 168 271 225 208 208 195 201 194 200 203 175 178 180 171 165 162 154
186 201 224 167 161 211 185 154 199 185 180 181 184 203 191 193 187 225 235 244 255 259 260 246 234 229 187 280 276 236 217 206 204 186 178 183 184 177 169 178 171 160 155 152
128 168 188 194 326 70 174 279 138 199 186 174 190 185 203 194 221 221 218 224 243 246 250 240 225 224 223 219 232 228 212 202 192 184 174 175 180 186 180 180 175 172 167 160
16 272 302 233 188 122 79 88 113 122 149 175 173 204 214 213 227 231 236 230 234 238 241 230 211 212 220 213 204 207 200 193 192 191 185 175 186 190 195 207 207 189 188 179
222 209 165 209 172 158 148 162 164 164 285 242 200 232 219 222 232 236 243 248 254 231 222 208 195 205 215 204 207 202 191 191 194 184 178 176 173 155 180 209 205 213 211 200
211 192 216 204 198 145 205 225 246 254 253 264 268 231 233 218 227 238 247 253 236 213 197 185 192 193 193 200 201 200 199 191 187 180 175 169 168 157 138 142 138 136 155 161
243 240 267 167 230 214 215 239 258 265 255 234 243 264 252 230 236 224 237 249 212 185 173 176 177 189 195 194 199 192 190 185 185 178 176 173 172 163 158 155 144 144 150 150
256 231 244 259 247 226 233 233 243 244 249 263 262 242 240 226 223 236 247 202 169 166 164 167 172 168 183 187 186 174 174 176 175 174 174 172 168 167 170 167 160 163 156 153
261 252 240 235 251 238 223 237 238 247 247 249 246 249 247 241 231 209 175 171 154 160 168 167 167 168 176 171 161 162 166 163 166 166 164 160 160 165 168 170 177 179 176 168
262 271 192 226 230 234 213 213 215 246 261 250 249 264 246 177 150 147 158 166 159 159 159 158 164 165 168 162 165 161 153 153 161 162 161 161 161 161 160 163 168 177 183 179
292 295 253 221 215 226 212 209 232 263 265 261 252 213 200 178 168 148 153 152 140 130 137 144 162 164 166 162 161 150 152 156 159 162 163 165 165 164 164 163 163 167 170 175
348 355 341 242 252 225 218 260 271 246 263 177 151 135 121 109 131 131 142 139 130 127 149 158 154 153 151 155 160 157 150 156 158 162 167 166 169 173 175 178 176 173 173 178
8 17 24 19 7 357 320 351 81 94 122 154 134 120 106 113 127 133 139 132 147 154 149 152 151 146 146 152 159 159 156 162 163 160 172 175 174 174 174 176 180 183 184 185
10 12 24 35 40 49 56 67 128 101 113 139 122 120 117 130 137 137 126 120 136 147 148 151 156 152 150 156 161 161 161 164 170 171 172 177 177 178 176 174 174 176 184 195
7 11 23 33 49 59 72 94 108 110 113 113 118 125 125 126 134 124 135 152 151 152 154 154 152 152 153 161 161 174 175 172 170 176 180 181 184 184 186 188 191 192 194 197
13 11 29 47 60 77 90 92 100 109 112 117 125 134 131 146 152 133 105 146 153 154 155 154 155 152 157 160 167 170 169 176 181 183 183 184 186 189 190 192 198 209 213 213
13 25 40 60 79 80 72 80 99 107 113 114 119 135 147 132 119 133 135 159 165 160 158 158 158 154 159 154 161 162 167 170 173 169 169 171 175 181 186 189 191 192 199 206
2 33 58 58 65 71 90 96 100 106 109 108 115 135 149 164 155 172 156 171 171 167 161 162 165 167 170 164 168 172 171 169 171 171 172 172 172 173 176 184 190 196 199 202
50 120 103 63 97 139 140 140 130 146 143 141 155 170 168 169 187 183 168 166 173 170 169 171 175 180 187 183 175 184 191 183 182 177 178 179 182 186 189 193 200 205 203 201
163 169 178 133 171 180 184 189 175 179 185 186 185 193 196 190 168 157 158 169 174 179 181 190 188 187 196 201 193 197 204 199 192 191 194 193 194 196 202 207 207 199 196 197
Height
762 758 755 756 757 765 765 760 766 764 775 774 778 780 779 779 779 778 777 775 772 771 768 769 772 773 774 776 780 777 778 780 782 782 783 783 783 783 783 783 783 785 788 791
771 763 760 758 762 761 760 765 767 773 776 767 769 771 773 772 775 778 778 774 771 770 766 767 769 770 773 777 777 776 778 780 781 781 781 781 780 780 781 781 782 784 786 790
749 771 766 767 758 756 758 757 764 777 766 770 773 774 775 776 778 778 778 778 775 774 773 772 772 775 777 777 774 775 778 780 780 781 781 780 779 778 778 780 781 784 786 788
766 772 765 735 741 742 744 751 755 755 758 759 767 770 771 774 773 773 774 775 776 776 776 777 775 776 777 776 775 775 777 778 779 780 781 781 781 779 779 781 782 784 785 788
770 762 754 745 741 748 748 750 748 748 755 760 766 770 771 770 769 770 773 774 775 775 775 775 771 773 775 775 776 776 776 777 778 780 780 781 782 781 781 782 783 785 786 788
768 763 757 740 731 738 738 754 744 745 752 759 765 777 771 762 765 768 768 770 771 770 772 773 771 774 773 772 775 775 777 777 778 779 779 781 781 781 782 783 784 786 787 790
761 763 754 737 736 735 750 745 732 736 744 754 758 754 752 756 762 765 767 768 768 768 770 770 769 770 772 772 774 775 776 777 777 778 778 780 780 781 782 784 785 788 789 791
764 766 752 732 737 734 739 737 738 743 744 748 747 750 751 754 761 762 763 765 765 767 767 767 768 769 770 770 772 773 774 774 774 776 777 778 780 781 783 785 787 789 791 792
739 737 730 729 731 734 734 735 738 740 742 744 749 750 751 755 759 761 763 763 764 766 766 767 766 766 768 769 770 772 773 773 775 776 776 777 780 782 784 786 788 790 791 794
727 730 729 731 728 729 734 734 735 737 739 744 750 749 750 753 756 757 758 759 762 763 764 763 764 765 766 766 767 770 771 772 773 775 776 778 780 782 783 786 788 790 792 795
734 731 730 729 729 729 733 734 737 737 739 742 747 748 747 748 753 753 754 756 757 759 760 761 762 763 764 763 765 767 769 770 772 774 776 777 780 781 783 786 788 789 792 794
738 731 731 731 729 730 733 735 737 739 740 740 742 743 742 741 744 746 748 751 752 754 756 758 759 760 761 762 764 766 768 769 771 773 775 777 779 781 785 787 789 791 792 794
728 729 729 730 729 728 731 735 735 737 737 736 735 738 738 736 735 738 742 744 747 750 754 756 757 757 759 761 762 763 766 768 770 772 774 777 779 782 784 789 790 792 794 796
723 726 726 730 728 726 727 729 731 731 731 731 731 731 733 733 733 733 736 739 743 747 750 753 755 756 758 759 761 763 765 767 769 771 773 776 779 781 785 788 789 793 796 797
721 722 720 721 723 724 725 727 727 728 729 727 726 728 729 728 728 729 732 737 742 746 749 751 753 754 757 759 761 762 764 767 768 771 774 776 779 782 785 788 790 794 797 800
718 721 718 721 720 719 720 723 726 725 723 722 722 722 722 723 725 727 731 735 739 744 747 750 751 753 756 758 760 762 765 767 768 771 774 776 779 783 786 788 791 794 796 799
719 714 711 715 716 715 717 717 717 716 717 717 716 717 718 720 723 728 733 736 737 742 745 748 750 752 755 757 760 763 764 766 769 771 774 776 780 783 785 788 790 793 795 799
716 709 706 709 710 711 711 710 709 709 710 710 711 713 715 717 720 725 732 736 738 741 745 747 749 752 755 757 760 762 764 766 769 772 775 778 780 783 785 788 791 793 796 800
711 707 704 706 705 704 705 705 706 707 707 709 711 715 716 716 719 724 731 736 738 742 746 748 749 751 754 757 760 762 765 767 770 773 776 778 781 783 786 789 792 794 797 800
713 709 707 707 707 706 706 706 707 707 708 710 713 716 719 722 725 729 733 737 740 742 745 747 749 751 755 758 761 763 766 769 771 774 776 779 781 784 787 789 792 795 798 800
714 713 712 711 711 710 709 709 709 710 711 713 715 718 722 727 730 732 735 739 741 744 746 748 751 753 755 759 761 764 767 769 771 773 776 779 782 784 787 790 792 795 797 800
717 716 715 714 713 713 712 712 713 713 716 716 719 722 724 729 732 735 737 739 742 744 746 749 751 754 756 760 762 765 767 769 771 774 776 779 781 784 787 790 792 795 798 800
719 719 718 717 717 717 716 717 717 717 719 721 723 726 728 730 733 736 739 741 742 745 747 749 752 755 758 760 762 765 767 769 772 774 776 779 781 784 786 789 792 794 797 799
721 720 720 719 719 719 719 720 720 722 723 725 727 728 730 732 735 738 739 741 744 746 748 751 754 757 759 761 764 766 768 770 772 774 777 779 781 784 786 789 791 793 796 797
721 721 721 722 721 722 723 723 723 724 725 727 729 731 733 734 737 739 741 743 745 747 750 753 755 758 760 763 765 767 769 771 773 775 777 779 781 783 786 788 790 792 794 796
722 723 723 723 723 724 724 724 725 727 727 729 731 733 734 736 738 740 741 743 745 748 750 753 755 758 761 763 765 767 770 772 773 775 777 779 781 783 785 787 789 791 792 794
721 723 724 724 725 725 725 726 727 727 728 730 731 733 735 737 738 740 742 744 746 748 750 752 755 757 760 762 764 767 769 771 773 775 777 778 780 782 784 785 787 789 790 792